contact:dominique.lefevre@mio.osupytheas.fr, maurice.libes@osupytheas.fr, didier.mallarino@osupytheas.fr
Project:EMSO http://www.emso-fr.org/EMSO-France
Depth: 2436.0 m
Title:EMSO Ligure Ouest : Data MII capteur AQUADOPP
Date,Latitude,Longitude,X_East,Y_North,Z_Up,Amplitude_X,Amplitude_Y,Amplitude_Z,Batterie,SoundSpeed,Heading,Pitch,Roll,Pressure,TIS,Speed,Direction
, degrees North, degrees East, m.s-1, m.s-1,m.s-1, 1, 1, 1, Volt, m.s-1, degree, degree, degree, dbar, degree_C, m.s-1, degree
2021-08-05T00:04:03,42.805,6.029,0.005,-0.018,-0.019,101.0,102.0,101.0,13.3,1505.2,325.9,-0.7,1.8,2470.608,13.28,0.018,164.5
2021-08-05T00:07:03,42.805,6.029,0.016,-0.021,-0.011,101.0,101.0,100.0,13.3,1505.2,326.2,-0.7,1.8,2470.6,13.28,0.026,142.7
2021-08-05T00:10:03,42.805,6.029,0.046,-0.007,0.001,100.0,102.0,102.0,13.4,1505.2,326.7,-0.8,1.8,2470.591,13.28,0.046,98.7
2021-08-05T00:13:03,42.805,6.029,0.039,-0.01,0.022,101.0,102.0,100.0,13.4,1505.2,327.2,-0.7,1.8,2470.596,13.28,0.04,104.4
2021-08-05T00:16:03,42.805,6.029,0.012,0.001,-0.011,100.0,102.0,101.0,13.4,1505.2,325.1,-0.8,1.8,2470.583,13.28,0.012,85.2
2021-08-05T00:19:03,42.805,6.029,0.02,-0.012,0.01,103.0,101.0,101.0,13.4,1505.2,328.1,-0.7,1.8,2470.534,13.28,0.023,121.0
2021-08-05T00:22:03,42.805,6.029,0.005,-0.001,-0.013,101.0,102.0,100.0,13.4,1505.2,327.0,-0.8,1.8,2470.566,13.28,0.005,101.3
2021-08-05T00:25:03,42.805,6.029,0.014,-0.014,0.014,102.0,103.0,99.0,13.4,1505.2,327.1,-0.8,1.8,2470.536,13.28,0.019,135.0
2021-08-05T00:28:03,42.805,6.029,0.013,0.008,0.026,101.0,102.0,101.0,13.3,1505.2,327.4,-0.7,1.8,2470.555,13.28,0.015,58.4
2021-08-05T00:31:03,42.805,6.029,0.02,-0.031,-0.006,101.0,102.0,100.0,13.3,1505.2,326.6,-0.7,1.8,2470.582,13.28,0.036,147.2
2021-08-05T00:34:03,42.805,6.029,0.01,-0.019,-0.017,102.0,100.0,101.0,13.3,1505.2,328.6,-0.7,1.8,2470.517,13.28,0.021,152.2
2021-08-05T00:37:03,42.805,6.029,0.023,-0.007,0.005,101.0,102.0,101.0,13.4,1505.2,325.0,-0.8,1.8,2470.542,13.28,0.024,106.9
2021-08-05T00:40:03,42.805,6.029,0.017,-0.008,-0.005,101.0,102.0,100.0,13.4,1505.2,327.0,-0.8,1.8,2470.569,13.28,0.018,115.2
2021-08-05T00:43:03,42.805,6.029,0.004,-0.006,0.008,101.0,102.0,101.0,13.4,1505.2,330.5,-0.7,1.8,2470.535,13.28,0.007,146.3
2021-08-05T00:46:03,42.805,6.029,0.002,-0.019,-0.02,100.0,103.0,101.0,13.3,1505.2,325.9,-0.7,1.8,2470.523,13.28,0.019,174.0
2021-08-05T00:49:03,42.805,6.029,0.033,-0.002,-0.012,102.0,101.0,100.0,13.4,1505.2,328.2,-0.8,1.8,2470.533,13.28,0.033,93.5
2021-08-05T00:52:03,42.805,6.029,0.025,-0.036,-0.034,101.0,101.0,101.0,13.4,1505.2,328.2,-0.7,1.9,2470.559,13.28,0.043,145.2
2021-08-05T00:55:03,42.805,6.029,0.019,-0.037,-0.027,101.0,101.0,101.0,13.4,1505.2,329.3,-0.8,1.8,2470.484,13.28,0.041,152.8
2021-08-05T00:58:03,42.805,6.029,0.005,-0.02,-0.008,100.0,101.0,101.0,13.4,1505.2,329.2,-0.8,1.8,2470.511,13.28,0.02,166.0
2021-08-05T01:04:03,42.805,6.029,0.049,-0.015,-0.02,102.0,102.0,102.0,13.4,1505.2,329.1,-0.8,1.8,2470.523,13.28,0.051,107.0
2021-08-05T01:07:03,42.805,6.029,0.017,-0.021,-0.038,103.0,103.0,102.0,13.4,1505.2,325.3,-0.7,1.8,2470.538,13.28,0.027,141.0
2021-08-05T01:10:03,42.805,6.029,0.014,-0.007,-0.022,101.0,101.0,101.0,13.4,1505.2,327.4,-0.8,1.8,2470.525,13.28,0.015,116.6
2021-08-05T01:13:03,42.805,6.029,0.038,-0.034,-0.026,101.0,100.0,101.0,13.4,1505.2,327.7,-0.8,1.8,2470.542,13.28,0.05,131.8
2021-08-05T01:16:03,42.805,6.029,0.007,-0.02,-0.013,102.0,102.0,100.0,13.3,1505.2,328.2,-0.8,1.8,2470.479,13.28,0.021,160.7
2021-08-05T01:19:03,42.805,6.029,0.037,-0.024,0.007,104.0,103.0,100.0,13.4,1505.2,329.9,-0.7,1.8,2470.516,13.28,0.044,123.0
2021-08-05T01:22:03,42.805,6.029,0.009,-0.01,-0.017,102.0,103.0,101.0,13.3,1505.2,326.1,-0.8,1.8,2470.514,13.28,0.013,138.0
2021-08-05T01:25:03,42.805,6.029,0.015,-0.015,-0.027,99.0,102.0,102.0,13.4,1505.2,327.2,-0.8,1.8,2470.518,13.28,0.021,135.0
2021-08-05T01:28:03,42.805,6.029,0.019,-0.016,-0.006,100.0,102.0,101.0,13.4,1505.2,325.8,-0.7,1.8,2470.484,13.28,0.024,130.1
2021-08-05T01:31:03,42.805,6.029,0.027,-0.032,0.001,100.0,102.0,102.0,13.4,1505.2,329.2,-0.8,1.9,2470.468,13.28,0.041,139.8
2021-08-05T01:34:03,42.805,6.029,0.014,-0.012,-0.003,103.0,99.0,101.0,13.4,1505.2,327.2,-0.7,1.8,2470.484,13.28,0.018,130.6
2021-08-05T01:37:03,42.805,6.029,0.032,-0.021,-0.023,102.0,102.0,100.0,13.4,1505.2,326.8,-0.8,1.8,2470.471,13.28,0.038,123.3
2021-08-05T01:40:03,42.805,6.029,0.022,-0.042,0.0,102.0,104.0,101.0,13.4,1505.2,327.8,-0.7,1.8,2470.471,13.28,0.047,152.4
2021-08-05T01:43:03,42.805,6.029,0.037,-0.022,-0.024,103.0,101.0,100.0,13.3,1505.2,326.4,-0.8,1.9,2470.474,13.28,0.043,120.7
2021-08-05T01:46:03,42.805,6.029,0.022,-0.004,-0.011,102.0,102.0,100.0,13.3,1505.2,326.3,-0.7,1.8,2470.495,13.28,0.022,100.3
2021-08-05T01:49:03,42.805,6.029,0.039,-0.026,-0.036,101.0,102.0,100.0,13.3,1505.2,329.1,-0.7,1.8,2470.509,13.28,0.046,123.7
2021-08-05T01:52:03,42.805,6.029,0.029,-0.028,-0.012,101.0,103.0,99.0,13.4,1505.2,328.3,-0.8,1.8,2470.487,13.28,0.04,134.0
2021-08-05T01:55:03,42.805,6.029,0.033,-0.015,-0.022,100.0,100.0,101.0,13.3,1505.2,328.5,-0.7,1.8,2470.496,13.28,0.036,114.4
2021-08-05T01:58:03,42.805,6.029,0.023,-0.027,-0.01,100.0,101.0,100.0,13.3,1505.2,327.2,-0.7,1.8,2470.455,13.28,0.035,139.6
2021-08-05T02:04:03,42.805,6.029,0.013,-0.018,-0.018,102.0,101.0,101.0,13.4,1505.2,328.6,-0.8,1.8,2470.564,13.28,0.022,144.2
2021-08-05T02:07:03,42.805,6.029,0.01,-0.001,-0.013,101.0,99.0,101.0,13.4,1505.2,326.1,-0.8,1.8,2470.512,13.28,0.01,95.7
2021-08-05T02:10:03,42.805,6.029,0.0,-0.034,-0.055,102.0,102.0,100.0,13.4,1505.2,330.4,-0.7,1.9,2470.544,13.28,0.034,180.0
2021-08-05T02:13:03,42.805,6.029,0.025,-0.014,-0.021,103.0,101.0,100.0,13.3,1505.2,328.6,-0.7,1.8,2470.51,13.28,0.028,119.3
2021-08-05T02:16:03,42.805,6.029,0.041,-0.004,-0.023,102.0,103.0,101.0,13.4,1505.2,328.6,-0.8,1.8,2470.551,13.28,0.041,95.6
2021-08-05T02:19:03,42.805,6.029,0.014,-0.012,-0.007,101.0,102.0,101.0,13.3,1505.2,330.1,-0.8,1.8,2470.528,13.28,0.018,130.6
2021-08-05T02:22:03,42.805,6.029,0.041,-0.003,-0.013,102.0,100.0,102.0,13.4,1505.2,325.0,-0.7,1.8,2470.521,13.28,0.041,94.2
2021-08-05T02:25:03,42.805,6.029,0.014,-0.01,-0.011,102.0,100.0,102.0,13.4,1505.2,325.5,-0.7,1.8,2470.55,13.28,0.017,125.5
2021-08-05T02:28:03,42.805,6.029,0.0,-0.015,-0.012,102.0,100.0,102.0,13.3,1505.2,327.2,-0.7,1.8,2470.52,13.28,0.015,180.0
2021-08-05T02:31:03,42.805,6.029,0.019,-0.033,-0.012,103.0,100.0,101.0,13.3,1505.2,330.6,-0.7,1.8,2470.532,13.28,0.038,150.1
2021-08-05T02:34:03,42.805,6.029,0.01,-0.044,-0.008,101.0,102.0,101.0,13.3,1505.2,326.2,-0.7,1.8,2470.557,13.28,0.045,167.2
2021-08-05T02:37:03,42.805,6.029,0.025,-0.014,-0.004,102.0,101.0,100.0,13.3,1505.2,327.6,-0.7,1.8,2470.547,13.28,0.028,119.3
2021-08-05T02:40:03,42.805,6.029,0.002,-0.003,-0.018,102.0,104.0,101.0,13.4,1505.2,329.0,-0.7,1.9,2470.558,13.28,0.003,146.3
2021-08-05T02:43:03,42.805,6.029,0.026,-0.023,0.008,102.0,102.0,100.0,13.3,1505.2,326.2,-0.7,1.8,2470.58,13.28,0.034,131.5
2021-08-05T02:46:03,42.805,6.029,0.015,-0.004,0.004,102.0,101.0,101.0,13.3,1505.2,325.7,-0.7,1.8,2470.549,13.28,0.015,104.9
2021-08-05T02:49:03,42.805,6.029,0.038,-0.038,-0.014,102.0,101.0,101.0,13.3,1505.2,327.5,-0.7,1.8,2470.55,13.28,0.053,135.0
2021-08-05T02:52:03,42.805,6.029,0.018,-0.022,0.003,103.0,101.0,101.0,13.4,1505.2,329.9,-0.8,1.8,2470.534,13.28,0.028,140.7
2021-08-05T02:55:03,42.805,6.029,0.031,-0.011,-0.005,102.0,101.0,101.0,13.3,1505.2,327.1,-0.8,1.8,2470.588,13.28,0.032,109.5
2021-08-05T02:58:03,42.805,6.029,0.039,-0.036,0.003,101.0,101.0,102.0,13.4,1505.2,329.4,-0.8,1.8,2470.567,13.28,0.053,132.7
2021-08-05T03:04:03,42.805,6.029,0.018,-0.041,-0.035,102.0,102.0,102.0,13.4,1505.2,330.0,-0.8,1.8,2470.61,13.28,0.044,156.3
2021-08-05T03:07:03,42.805,6.029,0.02,-0.029,0.0,103.0,101.0,101.0,13.3,1505.2,329.4,-0.8,1.9,2470.594,13.28,0.035,145.4
2021-08-05T03:10:03,42.805,6.029,0.007,-0.018,0.003,102.0,102.0,101.0,13.4,1505.2,330.8,-0.8,1.8,2470.65,13.28,0.019,158.8
2021-08-05T03:13:03,42.805,6.029,0.015,-0.016,-0.046,102.0,101.0,101.0,13.3,1505.2,327.3,-0.8,1.8,2470.599,13.28,0.021,136.9
2021-08-05T03:16:03,42.805,6.029,0.017,-0.018,-0.015,102.0,101.0,101.0,13.3,1505.2,331.1,-0.8,1.8,2470.621,13.28,0.024,136.6
2021-08-05T03:19:03,42.805,6.029,0.031,-0.022,-0.025,103.0,102.0,101.0,13.4,1505.2,326.9,-0.7,1.8,2470.59,13.28,0.038,125.4
2021-08-05T03:22:03,42.805,6.029,0.027,-0.026,0.01,104.0,101.0,101.0,13.4,1505.2,328.3,-0.8,1.8,2470.62,13.28,0.037,133.9
2021-08-05T03:25:03,42.805,6.029,-0.003,-0.017,-0.016,103.0,103.0,101.0,13.4,1505.2,325.5,-0.7,1.8,2470.606,13.28,0.017,190.0
2021-08-05T03:28:03,42.805,6.029,0.043,-0.014,-0.003,102.0,103.0,100.0,13.4,1505.2,326.3,-0.8,1.8,2470.606,13.28,0.045,108.0
2021-08-05T03:31:03,42.805,6.029,0.033,-0.022,-0.02,104.0,101.0,100.0,13.4,1505.2,327.2,-0.8,1.8,2470.626,13.28,0.039,123.7
2021-08-05T03:34:03,42.805,6.029,0.027,-0.047,-0.033,101.0,102.0,101.0,13.3,1505.2,328.8,-0.8,1.8,2470.626,13.28,0.054,150.1
2021-08-05T03:37:03,42.805,6.029,0.005,-0.02,-0.012,102.0,103.0,101.0,13.4,1505.2,328.7,-0.8,1.8,2470.617,13.28,0.02,166.0
2021-08-05T03:40:03,42.805,6.029,0.03,-0.034,-0.016,102.0,103.0,100.0,13.4,1505.2,328.7,-0.8,1.8,2470.596,13.28,0.045,138.6
2021-08-05T03:43:03,42.805,6.029,0.028,-0.025,-0.023,101.0,103.0,101.0,13.4,1505.2,325.2,-0.8,1.8,2470.613,13.28,0.037,131.8
2021-08-05T03:46:03,42.805,6.029,0.009,-0.023,-0.014,102.0,102.0,101.0,13.4,1505.2,328.5,-0.8,1.8,2470.584,13.28,0.024,158.6
2021-08-05T03:49:03,42.805,6.029,-0.006,-0.015,-0.028,101.0,101.0,102.0,13.4,1505.2,325.8,-0.8,1.8,2470.572,13.28,0.016,201.8
2021-08-05T03:52:03,42.805,6.029,0.005,-0.037,-0.046,102.0,101.0,101.0,13.3,1505.2,327.0,-0.7,1.8,2470.585,13.28,0.037,172.3
2021-08-05T03:55:03,42.805,6.029,-0.004,-0.039,-0.043,101.0,102.0,100.0,13.4,1505.2,330.3,-0.8,1.8,2470.593,13.28,0.039,185.9
2021-08-05T03:58:03,42.805,6.029,0.039,-0.013,-0.029,102.0,102.0,101.0,13.4,1505.2,329.1,-0.8,1.8,2470.601,13.28,0.041,108.4
2021-08-05T04:04:03,42.805,6.029,0.021,-0.024,-0.018,102.0,102.0,101.0,13.4,1505.2,327.5,-0.8,1.8,2470.651,13.28,0.031,138.8
2021-08-05T04:07:03,42.805,6.029,0.002,-0.026,-0.017,103.0,102.0,100.0,13.3,1505.2,329.1,-0.7,1.8,2470.654,13.28,0.026,175.6
2021-08-05T04:10:03,42.805,6.029,0.006,-0.022,-0.023,101.0,102.0,101.0,13.3,1505.2,330.7,-0.8,1.8,2470.614,13.28,0.022,164.7
2021-08-05T04:13:03,42.805,6.029,-0.018,-0.014,-0.038,102.0,101.0,100.0,13.4,1505.2,325.3,-0.8,1.8,2470.681,13.28,0.022,232.1
2021-08-05T04:16:03,42.805,6.029,0.035,-0.022,-0.024,102.0,102.0,100.0,13.4,1505.2,327.2,-0.8,1.8,2470.591,13.28,0.041,122.2
2021-08-05T04:19:03,42.805,6.029,0.041,-0.023,0.014,100.0,102.0,101.0,13.4,1505.2,326.8,-0.7,1.8,2470.613,13.28,0.047,119.3
2021-08-05T04:22:03,42.805,6.029,0.025,-0.016,0.014,102.0,99.0,101.0,13.4,1505.2,328.9,-0.7,1.8,2470.605,13.28,0.029,122.6
2021-08-05T04:25:03,42.805,6.029,0.039,-0.042,-0.037,102.0,100.0,101.0,13.3,1505.2,327.9,-0.8,1.8,2470.631,13.28,0.057,137.1
2021-08-05T04:28:03,42.805,6.029,-0.004,-0.01,-0.031,101.0,100.0,102.0,13.4,1505.2,329.1,-0.8,1.8,2470.635,13.28,0.01,201.8
2021-08-05T04:31:03,42.805,6.029,0.006,-0.035,-0.048,102.0,101.0,100.0,13.4,1505.2,329.2,-0.7,1.8,2470.618,13.28,0.035,170.3
2021-08-05T04:34:03,42.805,6.029,0.009,-0.014,0.039,101.0,101.0,101.0,13.4,1505.2,330.9,-0.7,1.8,2470.605,13.28,0.016,147.3
2021-08-05T04:37:03,42.805,6.029,0.019,-0.037,-0.041,102.0,101.0,101.0,13.4,1505.2,326.8,-0.8,1.8,2470.588,13.28,0.041,152.8
2021-08-05T04:40:03,42.805,6.029,0.034,-0.02,-0.037,101.0,101.0,101.0,13.4,1505.2,327.2,-0.8,1.8,2470.584,13.28,0.039,120.5
2021-08-05T04:43:03,42.805,6.029,0.035,-0.011,0.017,102.0,100.0,100.0,13.4,1505.2,330.6,-0.8,1.8,2470.65,13.28,0.036,107.4
2021-08-05T04:46:03,42.805,6.029,0.006,-0.025,-0.025,102.0,102.0,100.0,13.3,1505.2,329.4,-0.8,1.9,2470.574,13.28,0.025,166.5
2021-08-05T04:49:03,42.805,6.029,0.023,-0.027,-0.008,102.0,101.0,101.0,13.3,1505.2,328.6,-0.8,1.8,2470.62,13.28,0.035,139.6
2021-08-05T04:52:03,42.805,6.029,-0.009,-0.031,-0.009,102.0,102.0,99.0,13.4,1505.2,325.5,-0.7,1.8,2470.646,13.28,0.032,196.2
2021-08-05T04:55:03,42.805,6.029,0.019,-0.017,0.0,102.0,102.0,100.0,13.4,1505.2,328.7,-0.7,1.8,2470.626,13.28,0.025,131.8
2021-08-05T04:58:03,42.805,6.029,0.03,-0.007,0.009,102.0,101.0,100.0,13.3,1505.2,327.2,-0.8,1.8,2470.607,13.28,0.03,103.1
2021-08-05T05:04:03,42.805,6.029,0.007,-0.021,-0.044,102.0,101.0,101.0,13.4,1505.2,326.6,-0.7,1.8,2470.591,13.28,0.022,161.6
2021-08-05T05:07:03,42.805,6.029,0.022,-0.016,0.009,101.0,100.0,101.0,13.4,1505.2,326.5,-0.7,1.8,2470.592,13.28,0.027,126.0
2021-08-05T05:10:03,42.805,6.029,0.02,-0.032,-0.023,100.0,102.0,101.0,13.3,1505.2,328.6,-0.8,1.8,2470.638,13.28,0.037,148.0
2021-08-05T05:13:03,42.805,6.029,0.004,-0.022,-0.018,101.0,101.0,100.0,13.4,1505.2,327.3,-0.7,1.8,2470.628,13.28,0.022,169.7
2021-08-05T05:16:03,42.805,6.029,0.012,-0.018,-0.024,101.0,102.0,100.0,13.4,1505.2,325.1,-0.8,1.8,2470.655,13.28,0.021,146.3
2021-08-05T05:19:03,42.805,6.029,0.033,-0.014,0.024,102.0,100.0,99.0,13.3,1505.2,328.9,-0.7,1.8,2470.592,13.28,0.035,113.0
2021-08-05T05:22:03,42.805,6.029,-0.005,-0.013,0.004,99.0,101.0,101.0,13.3,1505.2,330.5,-0.8,1.8,2470.617,13.28,0.013,201.0
2021-08-05T05:25:03,42.805,6.029,0.004,-0.006,-0.02,101.0,102.0,100.0,13.3,1505.2,329.1,-0.8,1.8,2470.637,13.28,0.007,146.3
2021-08-05T05:28:03,42.805,6.029,0.008,-0.012,-0.031,101.0,101.0,100.0,13.4,1505.2,329.2,-0.8,1.9,2470.593,13.28,0.014,146.3
2021-08-05T05:31:03,42.805,6.029,0.003,-0.023,-0.004,101.0,102.0,101.0,13.3,1505.2,329.6,-0.7,1.9,2470.654,13.28,0.023,172.6
2021-08-05T05:34:03,42.805,6.029,0.013,-0.035,-0.014,102.0,100.0,101.0,13.4,1505.2,325.9,-0.7,1.8,2470.629,13.28,0.037,159.6
2021-08-05T05:37:03,42.805,6.029,0.004,-0.026,-0.032,102.0,101.0,100.0,13.4,1505.2,326.6,-0.8,1.8,2470.641,13.28,0.026,171.3
2021-08-05T05:40:03,42.805,6.029,0.002,-0.037,-0.002,102.0,101.0,101.0,13.4,1505.2,329.1,-0.7,1.8,2470.591,13.28,0.037,176.9
2021-08-05T05:43:03,42.805,6.029,-0.011,-0.011,0.0,102.0,101.0,100.0,13.4,1505.2,328.6,-0.8,1.8,2470.626,13.28,0.015,225.0
2021-08-05T05:46:03,42.805,6.029,-0.006,-0.012,0.01,101.0,102.0,101.0,13.4,1505.2,329.1,-0.7,1.8,2470.625,13.28,0.013,206.6
2021-08-05T05:49:03,42.805,6.029,-0.015,-0.004,-0.002,101.0,101.0,101.0,13.4,1505.2,329.3,-0.7,1.8,2470.612,13.28,0.015,255.1
2021-08-05T05:52:03,42.805,6.029,0.0,-0.033,-0.024,101.0,102.0,100.0,13.4,1505.2,328.0,-0.7,1.8,2470.595,13.28,0.033,180.0
2021-08-05T05:55:03,42.805,6.029,0.011,-0.023,-0.01,99.0,102.0,101.0,13.3,1505.2,328.9,-0.7,1.8,2470.623,13.28,0.025,154.4
2021-08-05T05:58:03,42.805,6.029,0.012,-0.011,-0.028,100.0,101.0,102.0,13.3,1505.2,327.9,-0.7,1.8,2470.608,13.28,0.016,132.5
2021-08-05T06:04:03,42.805,6.029,0.014,-0.028,-0.011,100.0,102.0,101.0,13.4,1505.2,327.0,-0.8,1.8,2470.625,13.28,0.031,153.4
2021-08-05T06:07:03,42.805,6.029,0.033,-0.029,0.013,102.0,101.0,100.0,13.4,1505.2,329.8,-0.7,1.8,2470.63,13.28,0.043,131.3
2021-08-05T06:10:03,42.805,6.029,0.017,-0.028,-0.028,103.0,101.0,100.0,13.4,1505.2,326.5,-0.7,1.8,2470.619,13.28,0.032,148.7
2021-08-05T06:13:03,42.805,6.029,0.014,-0.009,0.008,100.0,101.0,100.0,13.4,1505.2,328.4,-0.7,1.8,2470.597,13.28,0.016,122.7
2021-08-05T06:16:03,42.805,6.029,0.023,-0.01,-0.013,102.0,101.0,99.0,13.3,1505.2,326.9,-0.7,1.8,2470.615,13.28,0.025,113.5
2021-08-05T06:19:03,42.805,6.029,0.02,-0.027,-0.024,101.0,102.0,100.0,13.3,1505.2,327.5,-0.8,1.9,2470.605,13.28,0.033,143.5
2021-08-05T06:22:03,42.805,6.029,0.025,-0.021,-0.002,102.0,101.0,100.0,13.4,1505.2,329.6,-0.8,1.8,2470.575,13.28,0.032,130.0
2021-08-05T06:25:03,42.805,6.029,0.007,-0.03,-0.055,100.0,101.0,101.0,13.4,1505.2,328.5,-0.8,1.8,2470.613,13.28,0.03,166.9
2021-08-05T06:28:03,42.805,6.029,0.009,-0.024,-0.02,101.0,102.0,100.0,13.4,1505.2,330.4,-0.7,1.8,2470.605,13.28,0.025,159.4
2021-08-05T06:31:03,42.805,6.029,0.017,-0.038,-0.019,102.0,99.0,101.0,13.4,1505.2,324.9,-0.7,1.8,2470.552,13.28,0.041,155.9
2021-08-05T06:34:03,42.805,6.029,0.013,-0.019,-0.012,102.0,101.0,100.0,13.4,1505.2,327.6,-0.8,1.8,2470.603,13.28,0.023,145.6
2021-08-05T06:37:03,42.805,6.029,-0.004,-0.021,-0.032,101.0,101.0,101.0,13.4,1505.2,327.4,-0.8,1.8,2470.565,13.28,0.021,190.8
2021-08-05T06:40:03,42.805,6.029,0.022,-0.032,-0.022,101.0,102.0,100.0,13.4,1505.2,325.2,-0.7,1.8,2470.584,13.28,0.038,145.5
2021-08-05T06:43:03,42.805,6.029,0.0,-0.026,-0.047,101.0,101.0,100.0,13.4,1505.2,327.9,-0.7,1.8,2470.56,13.28,0.026,180.0
2021-08-05T06:46:03,42.805,6.029,-0.004,-0.031,-0.026,102.0,101.0,100.0,13.4,1505.2,330.9,-0.7,1.8,2470.607,13.28,0.031,187.3
2021-08-05T06:49:03,42.805,6.029,0.029,-0.005,0.008,103.0,102.0,99.0,13.3,1505.2,329.1,-0.8,1.8,2470.596,13.28,0.029,99.8
2021-08-05T06:52:03,42.805,6.029,0.02,-0.014,0.006,101.0,102.0,100.0,13.4,1505.2,327.2,-0.7,1.8,2470.576,13.28,0.024,125.0
2021-08-05T06:55:03,42.805,6.029,0.002,-0.037,-0.017,102.0,101.0,100.0,13.4,1505.2,326.9,-0.7,1.8,2470.562,13.28,0.037,176.9
2021-08-05T06:58:03,42.805,6.029,0.008,-0.024,-0.055,100.0,101.0,101.0,13.3,1505.2,327.5,-0.7,1.8,2470.577,13.28,0.025,161.6
2021-08-05T07:04:03,42.805,6.029,-0.006,-0.017,-0.012,102.0,101.0,101.0,13.4,1505.2,328.9,-0.8,1.8,2470.617,13.28,0.018,199.4
2021-08-05T07:07:03,42.805,6.029,0.005,-0.047,-0.017,101.0,101.0,101.0,13.3,1505.2,326.4,-0.8,1.8,2470.64,13.28,0.047,173.9
2021-08-05T07:10:03,42.805,6.029,0.016,-0.015,-0.009,102.0,100.0,100.0,13.3,1505.2,330.0,-0.8,1.9,2470.598,13.28,0.021,133.1
2021-08-05T07:13:03,42.805,6.029,0.009,-0.02,-0.006,103.0,102.0,101.0,13.4,1505.2,325.6,-0.7,1.8,2470.637,13.28,0.021,155.8
2021-08-05T07:16:03,42.805,6.029,0.013,-0.01,0.011,102.0,101.0,101.0,13.4,1505.2,326.8,-0.8,1.8,2470.603,13.28,0.016,127.6
2021-08-05T07:19:03,42.805,6.029,0.011,-0.022,-0.052,101.0,102.0,100.0,13.3,1505.2,327.1,-0.7,1.8,2470.583,13.28,0.024,153.4
2021-08-05T07:22:03,42.805,6.029,0.015,-0.02,-0.016,102.0,102.0,100.0,13.4,1505.2,325.9,-0.8,1.8,2470.572,13.28,0.025,143.1
2021-08-05T07:25:03,42.805,6.029,-0.008,-0.013,-0.005,101.0,102.0,99.0,13.4,1505.2,325.1,-0.7,1.8,2470.571,13.28,0.015,211.6
2021-08-05T07:28:03,42.805,6.029,-0.003,-0.007,-0.013,101.0,101.0,101.0,13.3,1505.2,325.3,-0.7,1.8,2470.548,13.28,0.007,203.2
2021-08-05T07:31:03,42.805,6.029,0.032,-0.03,-0.002,101.0,102.0,100.0,13.3,1505.2,325.0,-0.8,1.8,2470.543,13.28,0.043,133.1
2021-08-05T07:34:03,42.805,6.029,-0.007,-0.026,0.023,102.0,102.0,101.0,13.3,1505.2,329.7,-0.7,1.8,2470.566,13.28,0.026,195.1
2021-08-05T07:37:03,42.805,6.029,0.021,-0.019,-0.018,102.0,102.0,100.0,13.3,1505.2,327.0,-0.7,1.8,2470.581,13.28,0.028,132.1
2021-08-05T07:40:03,42.805,6.029,-0.009,-0.019,-0.018,99.0,101.0,102.0,13.3,1505.2,330.2,-0.8,1.8,2470.56,13.28,0.021,205.3
2021-08-05T07:43:03,42.805,6.029,-0.013,0.012,-0.029,101.0,101.0,101.0,13.3,1505.2,329.0,-0.8,1.8,2470.516,13.28,0.017,312.7
2021-08-05T07:46:03,42.805,6.029,0.027,-0.034,-0.016,102.0,101.0,101.0,13.4,1505.2,330.6,-0.7,1.9,2470.536,13.28,0.043,141.5
2021-08-05T07:49:03,42.805,6.029,-0.004,-0.025,-0.009,100.0,102.0,100.0,13.4,1505.2,327.2,-0.7,1.8,2470.603,13.28,0.025,189.1
2021-08-05T07:52:03,42.805,6.029,-0.014,-0.029,-0.009,101.0,101.0,100.0,13.4,1505.2,328.1,-0.7,1.8,2470.549,13.28,0.032,205.8
2021-08-05T07:55:03,42.805,6.029,0.004,-0.02,-0.017,101.0,101.0,100.0,13.4,1505.2,328.0,-0.7,1.8,2470.568,13.28,0.02,168.7
2021-08-05T07:58:03,42.805,6.029,0.028,-0.023,-0.015,102.0,101.0,101.0,13.4,1505.2,328.8,-0.8,1.9,2470.542,13.28,0.036,129.4
2021-08-05T08:04:03,42.805,6.029,0.011,-0.026,-0.057,102.0,101.0,101.0,13.4,1505.2,327.6,-0.8,1.8,2470.548,13.28,0.028,157.1
2021-08-05T08:07:03,42.805,6.029,-0.003,-0.031,-0.039,101.0,101.0,101.0,13.4,1505.2,327.5,-0.8,1.8,2470.535,13.28,0.031,185.5
2021-08-05T08:10:03,42.805,6.029,0.022,-0.023,0.0,101.0,101.0,101.0,13.3,1505.2,330.0,-0.8,1.8,2470.58,13.28,0.031,136.3
2021-08-05T08:13:03,42.805,6.029,0.01,-0.029,-0.029,102.0,103.0,99.0,13.4,1505.2,327.6,-0.8,1.8,2470.564,13.28,0.03,161.0
2021-08-05T08:16:03,42.805,6.029,0.015,-0.01,0.016,103.0,101.0,101.0,13.3,1505.2,326.9,-0.8,1.8,2470.542,13.28,0.018,123.7
2021-08-05T08:19:03,42.805,6.029,0.001,0.0,-0.003,102.0,103.0,99.0,13.4,1505.2,330.1,-0.8,1.8,2470.548,13.28,0.001,90.0
2021-08-05T08:22:03,42.805,6.029,0.016,-0.006,0.004,101.0,102.0,100.0,13.3,1505.2,328.1,-0.7,1.8,2470.538,13.28,0.017,110.6
2021-08-05T08:25:03,42.805,6.029,0.02,-0.029,-0.012,101.0,100.0,101.0,13.4,1505.2,330.1,-0.8,1.9,2470.562,13.28,0.035,145.4
2021-08-05T08:28:03,42.805,6.029,0.015,-0.015,-0.029,102.0,100.0,101.0,13.3,1505.2,329.2,-0.7,1.8,2470.514,13.28,0.021,135.0
2021-08-05T08:31:03,42.805,6.029,0.021,-0.024,-0.015,102.0,100.0,100.0,13.4,1505.2,328.8,-0.8,1.8,2470.557,13.28,0.031,138.8
2021-08-05T08:34:03,42.805,6.029,-0.007,-0.011,-0.015,100.0,102.0,101.0,13.4,1505.2,327.6,-0.7,1.9,2470.536,13.28,0.013,212.5
2021-08-05T08:37:03,42.805,6.029,0.045,-0.011,-0.02,101.0,101.0,101.0,13.3,1505.2,326.7,-0.7,1.8,2470.527,13.28,0.046,103.7
2021-08-05T08:40:03,42.805,6.029,0.014,-0.009,0.021,102.0,101.0,101.0,13.3,1505.2,327.6,-0.8,1.8,2470.523,13.28,0.016,122.7
2021-08-05T08:43:03,42.805,6.029,0.033,-0.006,0.001,101.0,102.0,100.0,13.3,1505.2,328.5,-0.8,1.8,2470.552,13.28,0.033,100.3
2021-08-05T08:46:03,42.805,6.029,0.005,-0.017,-0.022,102.0,101.0,100.0,13.3,1505.2,328.0,-0.8,1.8,2470.515,13.28,0.017,163.6
2021-08-05T08:49:03,42.805,6.029,0.0,-0.022,-0.01,102.0,102.0,101.0,13.4,1505.2,330.1,-0.7,1.8,2470.482,13.28,0.022,180.0
2021-08-05T08:52:03,42.805,6.029,0.003,-0.012,0.012,101.0,101.0,101.0,13.4,1505.2,325.7,-0.7,1.8,2470.536,13.28,0.012,166.0
2021-08-05T08:55:03,42.805,6.029,0.013,-0.033,-0.03,101.0,101.0,101.0,13.4,1505.2,326.1,-0.8,1.8,2470.522,13.28,0.035,158.5
2021-08-05T08:58:03,42.805,6.029,0.039,-0.023,-0.015,102.0,102.0,101.0,13.4,1505.2,330.6,-0.8,1.9,2470.525,13.28,0.045,120.5
2021-08-05T09:04:03,42.805,6.029,0.001,-0.024,-0.01,102.0,102.0,101.0,13.3,1505.2,329.3,-0.8,1.8,2470.566,13.28,0.024,177.6
2021-08-05T09:07:03,42.805,6.029,0.002,-0.011,-0.022,101.0,102.0,101.0,13.4,1505.2,328.4,-0.8,1.8,2470.57,13.28,0.011,169.7
2021-08-05T09:10:03,42.805,6.029,0.006,-0.022,-0.055,102.0,101.0,100.0,13.4,1505.2,328.8,-0.8,1.8,2470.544,13.28,0.022,164.7
2021-08-05T09:13:03,42.805,6.029,-0.014,-0.021,-0.027,101.0,102.0,100.0,13.4,1505.2,327.8,-0.8,1.8,2470.523,13.28,0.025,213.7
2021-08-05T09:16:03,42.805,6.029,-0.013,-0.032,-0.041,103.0,101.0,101.0,13.3,1505.2,328.3,-0.8,1.9,2470.512,13.28,0.034,202.1
2021-08-05T09:19:03,42.805,6.029,0.014,-0.023,-0.023,102.0,101.0,100.0,13.4,1505.2,327.9,-0.7,1.8,2470.498,13.28,0.026,148.7
2021-08-05T09:22:03,42.805,6.029,0.006,-0.026,-0.012,101.0,101.0,101.0,13.4,1505.2,329.2,-0.8,1.8,2470.471,13.28,0.026,167.0
2021-08-05T09:25:03,42.805,6.029,-0.006,0.0,-0.005,102.0,102.0,100.0,13.4,1505.2,328.9,-0.7,1.8,2470.535,13.28,0.006,270.0
2021-08-05T09:28:03,42.805,6.029,0.021,-0.018,-0.012,101.0,101.0,100.0,13.4,1505.2,328.0,-0.7,1.8,2470.525,13.28,0.027,130.6
2021-08-05T09:31:03,42.805,6.029,0.026,-0.027,-0.009,102.0,100.0,101.0,13.3,1505.2,325.7,-0.8,1.8,2470.493,13.28,0.037,136.1
2021-08-05T09:34:03,42.805,6.029,-0.007,-0.017,0.02,101.0,102.0,100.0,13.4,1505.2,328.4,-0.8,1.8,2470.51,13.28,0.018,202.4
2021-08-05T09:37:03,42.805,6.029,0.011,0.009,-0.011,100.0,101.0,101.0,13.4,1505.2,329.7,-0.8,1.8,2470.491,13.28,0.014,50.7
2021-08-05T09:40:03,42.805,6.029,-0.012,-0.03,-0.024,101.0,101.0,101.0,13.4,1505.2,330.3,-0.7,1.8,2470.511,13.28,0.032,201.8
2021-08-05T09:43:03,42.805,6.029,0.001,-0.012,0.013,101.0,102.0,101.0,13.3,1505.2,325.0,-0.7,1.8,2470.499,13.28,0.012,175.2
2021-08-05T09:46:03,42.805,6.029,0.024,-0.032,-0.025,102.0,100.0,100.0,13.4,1505.2,328.9,-0.7,1.8,2470.48,13.28,0.04,143.1
2021-08-05T09:49:03,42.805,6.029,0.014,-0.02,-0.007,102.0,102.0,101.0,13.4,1505.2,330.4,-0.7,1.8,2470.446,13.28,0.024,145.0
2021-08-05T09:52:03,42.805,6.029,0.022,-0.013,-0.025,103.0,101.0,100.0,13.4,1505.2,325.3,-0.7,1.9,2470.477,13.28,0.025,120.6
2021-08-05T09:55:03,42.805,6.029,0.018,-0.019,0.006,101.0,103.0,101.0,13.3,1505.2,328.7,-0.7,1.8,2470.482,13.28,0.026,136.5